map of KAAT home
Great Circle Mapper logo
KAAT - Airport
Location
City:  Alturas, California, United States
Name:Alturas Municipal Airport
ICAO:KAAT
FAA:AAT

Details
Type:Airport (Airfield)
Use:Public/Civil
Latitude:4128'59"N (41.482972)
Longitude:12033'55"W (-120.565388)
Datum:WGS 1984
Elevation:4378 ft (1334 m)
Variation:14.3E (WMM2010 magnetic declination)
Runways:2
Longest:4300 × 50 ft (1311 × 15 m), paved

Time
Time Zone:UTC-8 (DST-7)
Local Time:

Weather
METAR:KAAT 272355Z AUTO 25007KT 10SM CLR 12/M02 A3009 RMK AO2 SLP183 T01221017 10133 20056 56016

Related Locations
Nearby:
Farthest:FTU: 11093 mi / 17853 km
Tolagnaro [Maurillac (Fort Dauphin)], MG

Find:

   beyond  
but within

Other Information
Maps:
NOTAMs:
Links:
Sources:

  
flag of United States
flag of California
  

Sectional Chart

Flight Planning
at skyvector.com

Satellite Image

Google Maps Satellite View

 

Copyright © 2004-2014 Karl L. Swartz. All rights reserved.
The Great Circle Mapper name and logo are trademarks of the Great Circle Mapper.
All other trademarks mentioned herein belong to their respective owners.
Please see credits for attibutions and further copyright information.

  Follow gcmap on Facebook Follow gcmap on Twitter

hCard Microformat

Geo Microformat